Rabat, Morocco

2:29 AM WET on May 24, 2018 (GMT +0000)
Rabat

Weather History for 60135 - March, 2014

Change the Weather History Date:

Saturday, March 29, 2014

  Actual Average Record
Temperature  
Mean Temperature 54 °F -  
Max Temperature 61 °F 67 °F - ()
Min Temperature 46 °F 50 °F - ()
Degree Days  
Heating Degree Days 12    
Growing Degree Days 4 (Base 50)    
Moisture  
Dew Point 46 °F    
Average Humidity 80    
Maximum Humidity 94    
Minimum Humidity 63    
Precipitation  
Precipitation 0.20 in 0.08 in - ()
Sea Level Pressure  
Sea Level Pressure 29.75 in    
Wind  
Wind Speed 5 mph ()    
Max Wind Speed 20 mph    
Max Gust Speed 31 mph    
Visibility 4.3 miles    
Events Rain , Thunderstorm    
T = Trace of Precipitation, MM = Missing Value Source: Averaged Metar Reports

Daily Weather History Graph

Daily Weather History Graph

Search for Another Location

Airport or City:

Astronomy

Mar. 29, 2014 Rise Set
Actual Time 6:18 AM WET 6:45 PM WET
Civil Twilight 5:53 AM WET 7:10 PM WET
Nautical Twilight 5:24 AM WET 7:40 PM WET
Astronomical Twilight 4:54 AM WET 8:10 PM WET
Moon 5:15 AM WET (3/29) 5:37 PM WET (3/29)
Length of Visible Light 13h 16m
Length of Day
12h 26m
Waning Crescent, 2% of the Moon is Illuminated
Mar 29
Waning Crescent
Mar 30
New
Apr 7
First Quarter
Apr 15
Full
Apr 22
Last Quarter

Hourly Weather History & Observations

Time (WET) Temp. Dew Point Humidity Pressure Visibility Wind Dir Wind Speed Gust Speed Precip Events Conditions
12:00 AM 50 °F 42 °F 67% 29.65 in 4 mi South 5.8 mph - -   Overcast
12:00 AM 50.0 °F 42.8 °F 76% 29.62 in 3.7 mi South 5.8 mph - N/A   Mostly Cloudy
12:30 AM 50.0 °F 42.8 °F 76% 29.62 in 3.7 mi South 2.3 mph - N/A   Mostly Cloudy
1:00 AM 48.2 °F 42.8 °F 82% 29.62 in 3.7 mi Calm Calm - N/A   Mostly Cloudy
1:30 AM 48.2 °F 42.8 °F 82% 29.62 in 6.2 mi Calm Calm - N/A   Mostly Cloudy
2:00 AM 48.2 °F 42.8 °F 82% 29.59 in 6.2 mi Calm Calm - N/A   Mostly Cloudy
2:30 AM 48.2 °F 42.8 °F 82% 29.59 in 6.2 mi Calm Calm - N/A   Mostly Cloudy
3:00 AM 48 °F 43 °F 75% 29.62 in 4 mi Calm Calm - -   Overcast
3:00 AM 48.2 °F 42.8 °F 82% 29.59 in 3.7 mi NNE 3.5 mph - N/A   Mostly Cloudy
3:30 AM 48.2 °F 44.6 °F 87% 29.59 in 6.2 mi Calm Calm - N/A   Mostly Cloudy
4:00 AM 46.4 °F 42.8 °F 87% 29.59 in 3.7 mi Calm Calm - N/A   Mostly Cloudy
4:30 AM 46.4 °F 44.6 °F 93% 29.62 in 6.2 mi Calm Calm - N/A   Mostly Cloudy
5:00 AM 46.4 °F 44.6 °F 93% 29.62 in 6.2 mi Calm Calm - N/A   Mostly Cloudy
5:30 AM 48.2 °F 44.6 °F 87% 29.62 in 6.2 mi Calm Calm - N/A   Mostly Cloudy
6:00 AM 47 °F 44 °F 85% 29.65 in 4 mi Calm Calm - -   Overcast
6:00 AM 46.4 °F 44.6 °F 93% 29.62 in 3.7 mi Calm Calm - N/A   Mostly Cloudy
6:30 AM 46.4 °F 42.8 °F 87% 29.65 in 3.7 mi Calm Calm - N/A   Mostly Cloudy
7:00 AM 48.2 °F 44.6 °F 87% 29.65 in 3.7 mi Calm Calm - N/A   Mostly Cloudy
7:30 AM 51.8 °F 46.4 °F 82% 29.65 in 5.0 mi Calm Calm - N/A   Scattered Clouds
8:00 AM 53.6 °F 48.2 °F 82% 29.68 in 6.2 mi Calm Calm - N/A   Scattered Clouds
8:30 AM 55.4 °F 48.2 °F 77% 29.68 in 6.2 mi Calm Calm - N/A   Scattered Clouds
9:00 AM 55 °F 48 °F 69% 29.72 in 6 mi SW 4.6 mph - -   Mostly Cloudy
9:00 AM 55.4 °F 48.2 °F 77% 29.71 in 6.2 mi SW 4.6 mph - N/A   Mostly Cloudy
9:30 AM 55.4 °F 48.2 °F 77% 29.74 in 6.2 mi WSW 13.8 mph - N/A   Mostly Cloudy
10:00 AM 51.8 °F 46.4 °F 82% 29.74 in 3.7 mi SW 8.1 mph - N/A Rain Light Rain
10:30 AM 57.2 °F 46.4 °F 67% 29.74 in 3.7 mi SSW 6.9 mph - N/A   Mostly Cloudy
11:00 AM 59.0 °F 48.2 °F 67% 29.77 in 6.2 mi WSW 10.4 mph - N/A   Mostly Cloudy
11:30 AM 59.0 °F 48.2 °F 67% 29.77 in 6.2 mi West 16.1 mph - N/A   Partly Cloudy
11:34 AM 53.6 °F 46.4 °F 77% 29.80 in 2.5 mi WNW 16.1 mph - N/A Rain Light Rain Showers
12:00 PM 52 °F 48 °F 80% 29.80 in 4 mi WNW 1.2 mph - - Rain Light Rain Showers
12:00 PM 51.8 °F 48.2 °F 88% 29.77 in 3.7 mi WNW 1.2 mph - N/A   Partly Cloudy
12:30 PM 55.4 °F 50.0 °F 82% 29.77 in 3.7 mi Variable 1.2 mph - N/A   Partly Cloudy
1:00 PM 59.0 °F 48.2 °F 67% 29.77 in 6.2 mi WSW 6.9 mph - N/A   Mostly Cloudy
1:30 PM 59.0 °F 46.4 °F 63% 29.77 in 6.2 mi WSW 11.5 mph - N/A   Mostly Cloudy
2:00 PM 51.8 °F 46.4 °F 82% 29.80 in 2.5 mi WNW 19.6 mph 31.1 mph N/A Rain Light Rain Showers
2:04 PM 51.8 °F 46.4 °F 82% 29.80 in 2.5 mi WNW 17.3 mph - N/A Rain , Thunderstorm Light Thunderstorms and Rain
2:30 PM 53.6 °F 50.0 °F 88% 29.80 in 3.7 mi WSW 8.1 mph - N/A   Partly Cloudy
3:00 PM 56 °F 51 °F 76% 29.81 in 4 mi WSW 6.9 mph - - Rain Light Rain Showers
3:00 PM 55.4 °F 50.0 °F 82% 29.80 in 3.7 mi WSW 6.9 mph - N/A   Partly Cloudy
3:30 PM 59.0 °F 48.2 °F 67% 29.80 in 3.7 mi WSW 12.7 mph - N/A   Mostly Cloudy
4:00 PM 59.0 °F 48.2 °F 67% 29.80 in 3.7 mi WSW 13.8 mph - N/A   Mostly Cloudy
4:30 PM 59.0 °F 48.2 °F 67% 29.80 in 3.7 mi WSW 17.3 mph 28.8 mph N/A   Mostly Cloudy
5:00 PM 57.2 °F 44.6 °F 63% 29.83 in 3.7 mi WSW 10.4 mph - N/A   Mostly Cloudy
5:30 PM 55.4 °F 46.4 °F 72% 29.83 in 3.7 mi WSW 10.4 mph - N/A   Mostly Cloudy
6:00 PM 55 °F 46 °F 63% 29.86 in 4 mi WSW 11.5 mph - -   Overcast
6:00 PM 55.4 °F 46.4 °F 72% 29.83 in 3.7 mi WSW 11.5 mph - N/A   Mostly Cloudy
7:00 PM 55.4 °F 44.6 °F 67% 29.89 in 3.7 mi West 13.8 mph 27.6 mph N/A   Mostly Cloudy
7:30 PM 51.8 °F 46.4 °F 82% 29.89 in 3.7 mi WSW 8.1 mph - N/A   Mostly Cloudy
8:00 PM 53.6 °F 50.0 °F 88% 29.89 in 3.7 mi SW 6.9 mph - N/A   Mostly Cloudy
8:30 PM 51.8 °F 48.2 °F 88% 29.92 in 3.1 mi WSW 3.5 mph - N/A   Partly Cloudy
9:00 PM 52 °F 49 °F 85% 29.94 in 3 mi SW 9.2 mph - - Rain Light Rain Showers
9:00 PM 51.8 °F 48.2 °F 88% 29.92 in 3.1 mi SW 9.2 mph - N/A   Partly Cloudy
9:30 PM 51.8 °F 50.0 °F 94% 29.92 in 3.1 mi SSW 9.2 mph - N/A   Partly Cloudy
10:00 PM 51.8 °F 48.2 °F 88% 29.95 in 3.1 mi SSW 6.9 mph - N/A   Partly Cloudy
10:30 PM 51.8 °F 48.2 °F 88% 29.95 in 3.1 mi South 8.1 mph - N/A   Mostly Cloudy
11:00 PM 51.8 °F 50.0 °F 94% 29.95 in 3.1 mi SW 8.1 mph - N/A   Mostly Cloudy
11:30 PM 51.8 °F 48.2 °F 88% 29.95 in 3.1 mi SSW 8.1 mph - N/A   Mostly Cloudy